{"data":{"norad_id":53495,"intl_designator":"2022-099AG","name":"STARLINK-4429","alt_names":[],"object_type":"PAYLOAD","status":"ACTIVE","operator":null,"country":"US","launch_date":"2022-08-12","launch_site_code":"AFWTR","launch_vehicle":null,"mission":null,"orbit_class":"UNKNOWN","rcs_meters":null,"size_class":null,"mass_kg":null,"dimensions":null,"purposes":["comms"],"wikipedia_slug":null,"has_3d_model":false,"image_url":null,"decayed_at":null,"tle_current":{"epoch":"2026-09-20T22:00:03.000096Z","epoch_age_seconds":42526,"freshness":"FRESH","line1":"1 53495U 22099AG  26263.91670139 -.00020832  00000+0 -96861-3 0  9992","line2":"2 53495  97.2861  17.7728 0002247 111.7611 156.6474 15.19968343  5788","mean_motion":15.19968343,"eccentricity":0.0002247,"inclination_deg":97.2861,"raan_deg":17.7728,"arg_perigee_deg":111.7611,"mean_anomaly_deg":156.6474,"bstar":-0.00096861,"rev_number":578,"period_min":94.738815228075,"perigee_km":504.3893457673,"apogee_km":507.48304826204,"semimajor_km":6884.0731970147,"source":"CELESTRAK","updated_at":"2026-09-21T09:00:32.894542Z"}}}